When you browse on this site, cookies collect data to enhance your experience and personalize the content and advertising you see.
Visit our Privacy Policy to learn more. By continuing to use the site, you agree to this use of cookies and data.

Hourly Weather Algiers

Today, 8 August, Saturday

Time Temperature Precipitation Wind Pressure Humidity
00:00 +26°C° 0 mm 2 mps 751 mmHg 48%
01:00 +26°C° 0 mm 2 mps 751 mmHg 46%
02:00 +26°C° 0 mm 2 mps 750 mmHg 43%
03:00 +26°C° 0 mm 2 mps 750 mmHg 41%
04:00 +27°C° 0 mm 2 mps 750 mmHg 40%
05:00 +27°C° 0 mm 2 mps 751 mmHg 39%
06:00 +27°C° 0 mm 2 mps 751 mmHg 39%
07:00 +29°C° 0 mm 3 mps 751 mmHg 36%
08:00 +30°C° 0 mm 4 mps 751 mmHg 34%
09:00 +33°C° 0 mm 4 mps 751 mmHg 31%
10:00 +33°C° 0 mm 5 mps 751 mmHg 33%
11:00 +34°C° 0 mm 5 mps 751 mmHg 35%
12:00 +35°C° 0 mm 5 mps 750 mmHg 36%
13:00 +35°C° 0 mm 6 mps 750 mmHg 37%
14:00 +35°C° 0 mm 6 mps 750 mmHg 37%
15:00 +35°C° 0 mm 6 mps 750 mmHg 37%
16:00 +34°C° 0 mm 6 mps 750 mmHg 38%
17:00 +33°C° 0 mm 5 mps 749 mmHg 40%
18:00 +32°C° 0 mm 5 mps 749 mmHg 42%
19:00 +30°C° 0 mm 5 mps 750 mmHg 44%
20:00 +29°C° 0 mm 4 mps 750 mmHg 46%
21:00 +28°C° 0 mm 4 mps 750 mmHg 48%
22:00 +28°C° 0 mm 3 mps 750 mmHg 45%
23:00 +28°C° 0 mm 2 mps 750 mmHg 43%

Tomorrow, 9 August, Sunday

Time Temperature Precipitation Wind Pressure Humidity
00:00 +28°C° 0 mm 2 mps 750 mmHg 40%
01:00 +28°C° 0 mm 2 mps 749 mmHg 40%
02:00 +28°C° 0 mm 2 mps 749 mmHg 40%
03:00 +28°C° 0 mm 3 mps 749 mmHg 40%
04:00 +28°C° 0 mm 3 mps 749 mmHg 38%
05:00 +28°C° 0 mm 3 mps 749 mmHg 37%
06:00 +29°C° 0 mm 3 mps 749 mmHg 35%
07:00 +31°C° 0 mm 3 mps 749 mmHg 32%
08:00 +33°C° 0 mm 3 mps 749 mmHg 29%
09:00 +35°C° 0 mm 3 mps 749 mmHg 26%
10:00 +35°C° 0 mm 4 mps 749 mmHg 29%
11:00 +36°C° 0 mm 5 mps 749 mmHg 31%
12:00 +36°C° 0 mm 6 mps 749 mmHg 33%
13:00 +35°C° 0 mm 6 mps 748 mmHg 34%
14:00 +35°C° 0 mm 6 mps 748 mmHg 35%
15:00 +35°C° 0 mm 6 mps 747 mmHg 36%
16:00 +34°C° 0 mm 6 mps 747 mmHg 37%
17:00 +33°C° 0 mm 5 mps 747 mmHg 38%
18:00 +33°C° 0 mm 5 mps 747 mmHg 40%
19:00 +32°C° 0 mm 5 mps 747 mmHg 41%
20:00 +30°C° 0 mm 4 mps 748 mmHg 42%
21:00 +29°C° 0 mm 4 mps 748 mmHg 44%
22:00 +29°C° 0 mm 4 mps 748 mmHg 42%
23:00 +29°C° 0 mm 3 mps 747 mmHg 39%

Day after tomorrow, 10 August, Monday

Time Temperature Precipitation Wind Pressure Humidity
00:00 +29°C° 0 mm 3 mps 747 mmHg 37%
01:00 +29°C° 0 mm 3 mps 747 mmHg 35%
02:00 +29°C° 0 mm 3 mps 746 mmHg 34%
03:00 +29°C° 0 mm 2 mps 746 mmHg 32%
04:00 +29°C° 0 mm 2 mps 746 mmHg 31%
05:00 +30°C° 0 mm 2 mps 746 mmHg 31%
06:00 +30°C° 0 mm 2 mps 746 mmHg 30%
07:00 +33°C° 0 mm 3 mps 747 mmHg 28%
08:00 +35°C° 0 mm 3 mps 747 mmHg 25%
09:00 +36°C° 0 mm 3 mps 747 mmHg 23%
10:00 +37°C° 0 mm 4 mps 747 mmHg 25%
11:00 +37°C° 0 mm 5 mps 747 mmHg 27%
12:00 +38°C° 0 mm 6 mps 746 mmHg 28%
13:00 +38°C° 0 mm 6 mps 746 mmHg 29%
14:00 +38°C° 0 mm 6 mps 746 mmHg 30%
15:00 +38°C° 0 mm 6 mps 745 mmHg 31%
16:00 +36°C° 0 mm 6 mps 745 mmHg 32%
17:00 +35°C° 0 mm 6 mps 745 mmHg 33%
18:00 +34°C° 0 mm 6 mps 745 mmHg 34%
19:00 +33°C° 0 mm 6 mps 745 mmHg 35%
20:00 +33°C° 0 mm 5 mps 746 mmHg 36%
21:00 +32°C° 0 mm 5 mps 746 mmHg 37%
22:00 +32°C° 0 mm 5 mps 746 mmHg 34%
23:00 +32°C° 0 mm 4 mps 746 mmHg 32%

11 August, Tuesday

Time Temperature Precipitation Wind Pressure Humidity
00:00 +32°C° 0 mm 4 mps 746 mmHg 30%
01:00 +32°C° 0 mm 4 mps 746 mmHg 29%
02:00 +32°C° 0 mm 4 mps 746 mmHg 29%
03:00 +30°C° 0 mm 4 mps 745 mmHg 28%
04:00 +32°C° 0 mm 4 mps 746 mmHg 28%
05:00 +32°C° 0 mm 4 mps 746 mmHg 29%
06:00 +32°C° 0 mm 4 mps 746 mmHg 29%
07:00 +34°C° 0 mm 4 mps 746 mmHg 27%
08:00 +36°C° 0 mm 3 mps 746 mmHg 24%
09:00 +38°C° 0 mm 3 mps 746 mmHg 22%
10:00 +38°C° 0 mm 4 mps 746 mmHg 23%
11:00 +40°C° 0 mm 5 mps 746 mmHg 24%
12:00 +40°C° 0 mm 5 mps 746 mmHg 25%
13:00 +40°C° 0 mm 6 mps 745 mmHg 26%
14:00 +40°C° 0 mm 6 mps 745 mmHg 27%
15:00 +40°C° 0 mm 7 mps 745 mmHg 28%
16:00 +39°C° 0 mm 7 mps 745 mmHg 27%
17:00 +39°C° 0 mm 7 mps 745 mmHg 27%
18:00 +38°C° 0 mm 7 mps 745 mmHg 27%
19:00 +36°C° 0 mm 6 mps 745 mmHg 28%
20:00 +35°C° 0 mm 5 mps 745 mmHg 30%
21:00 +34°C° 0 mm 5 mps 745 mmHg 31%
22:00 +34°C° 0 mm 4 mps 745 mmHg 30%
23:00 +34°C° 0 mm 4 mps 745 mmHg 28%

12 August, Wednesday

Time Temperature Precipitation Wind Pressure Humidity
00:00 +34°C° 0 mm 3 mps 745 mmHg 27%
01:00 +33°C° 0 mm 3 mps 745 mmHg 28%
02:00 +33°C° 0 mm 4 mps 745 mmHg 30%
03:00 +33°C° 0 mm 4 mps 745 mmHg 32%
04:00 +32°C° 0 mm 4 mps 745 mmHg 44%
05:00 +29°C° 0 mm 5 mps 745 mmHg 56%
06:00 +28°C° 0 mm 5 mps 746 mmHg 67%
07:00 +30°C° 0 mm 5 mps 746 mmHg 62%
08:00 +32°C° 0 mm 5 mps 746 mmHg 56%
09:00 +33°C° 0 mm 5 mps 747 mmHg 51%
10:00 +34°C° 0 mm 5 mps 747 mmHg 50%
11:00 +34°C° 0 mm 6 mps 747 mmHg 50%
12:00 +35°C° 0 mm 6 mps 747 mmHg 50%
13:00 +34°C° 0 mm 5 mps 747 mmHg 51%
14:00 +34°C° 0 mm 5 mps 746 mmHg 51%
15:00 +34°C° 0 mm 4 mps 746 mmHg 52%
16:00 +33°C° 0 mm 3 mps 746 mmHg 52%
17:00 +31°C° 0 mm 3 mps 746 mmHg 53%
18:00 +31°C° 0 mm 2 mps 746 mmHg 53%
19:00 +30°C° 0 mm 2 mps 747 mmHg 54%
20:00 +29°C° 0 mm 2 mps 747 mmHg 55%
21:00 +28°C° 0 mm 1 mps 748 mmHg 56%
22:00 +29°C° 0 mm 1 mps 748 mmHg 55%
23:00 +29°C° 0 mm 1 mps 747 mmHg 54%

13 August, Thursday

Time Temperature Precipitation Wind Pressure Humidity
00:00 +29°C° 0 mm 1 mps 747 mmHg 53%
01:00 +28°C° 0 mm 1 mps 747 mmHg 56%
02:00 +28°C° 0 mm 2 mps 747 mmHg 58%
03:00 +27°C° 0 mm 2 mps 747 mmHg 61%
04:00 +27°C° 0 mm 2 mps 747 mmHg 61%
05:00 +27°C° 0 mm 2 mps 748 mmHg 60%
06:00 +28°C° 0 mm 1 mps 748 mmHg 60%
07:00 +29°C° 0 mm 1 mps 748 mmHg 54%
08:00 +31°C° 0 mm 1 mps 748 mmHg 48%
09:00 +32°C° 0 mm 1 mps 748 mmHg 42%
10:00 +34°C° 0 mm 2 mps 748 mmHg 41%
11:00 +35°C° 0 mm 3 mps 748 mmHg 40%
12:00 +35°C° 0 mm 3 mps 747 mmHg 39%
13:00 +35°C° 0 mm 3 mps 747 mmHg 39%
14:00 +35°C° 0 mm 3 mps 747 mmHg 39%
15:00 +35°C° 0 mm 3 mps 746 mmHg 39%
16:00 +34°C° 0 mm 3 mps 746 mmHg 41%
17:00 +33°C° 0 mm 3 mps 746 mmHg 43%
18:00 +31°C° 0 mm 3 mps 746 mmHg 45%
19:00 +30°C° 0 mm 2 mps 747 mmHg 49%
20:00 +29°C° 0 mm 2 mps 747 mmHg 52%
21:00 +29°C° 0 mm 2 mps 747 mmHg 55%
22:00 +28°C° 0 mm 2 mps 747 mmHg 57%
23:00 +28°C° 0 mm 1 mps 747 mmHg 58%
Show more